Weather History for KSLO - March, 2013

Change the Weather History Date:

Tuesday, March 12, 2013

  Actual Average Record
Temperature  
Mean Temperature 40 °F -  
Max Temperature 48 °F 53 °F 79 °F (1972)
Min Temperature 32 °F 35 °F 10 °F (1960)
Degree Days  
Heating Degree Days 25    
Moisture  
Dew Point 29 °F    
Average Humidity 71    
Maximum Humidity 89    
Minimum Humidity 49    
Precipitation  
Precipitation 0.00 in - - ()
Sea Level Pressure  
Sea Level Pressure 30.07 in    
Wind  
Wind Speed 10 mph (West)    
Max Wind Speed 21 mph    
Max Gust Speed 26 mph    
Visibility 10 miles    
Events      
Averages and records for this station are not official NWS values.
T = Trace of Precipitation, MM = Missing Value Source: NWS Daily Summary

Daily Weather History Graph

Daily Weather History Graph

Search for Another Location

Airport or City:

Trip Planner

Search our weather history database for the weather conditions in past years. The results will help you decide how hot, cold, wet, or windy it might be!

Date:

Astronomy

Mar. 12, 2013 Rise Set
Actual Time 7:11 AM CDT 7:00 PM CDT
Civil Twilight 6:44 AM CDT 7:26 PM CDT
Nautical Twilight 6:14 AM CDT 7:57 PM CDT
Astronomical Twilight 5:43 AM CDT 8:28 PM CDT
Moon 7:18 AM CDT (3/12) 8:13 PM CDT (3/12)
Length of Visible Light 12h 41m
Length of Day
11h 48m
New Moon, 1% of the Moon is Illuminated
Mar 12
New Moon
Mar 19
First Quarter
Mar 27
Full
Apr 2
Last Quarter
Apr 10
New

Hourly Weather History & Observations

Time (CDT) Temp. Windchill Dew Point Humidity Pressure Visibility Wind Dir Wind Speed Gust Speed Precip Events Conditions
12:15 AM 36.1 °F 29.3 °F 31.8 °F 84% 29.99 in 10.0 mi WSW 9.2 mph - N/A   Overcast
12:35 AM 36.1 °F 29.3 °F 31.8 °F 84% 29.99 in 10.0 mi WSW 9.2 mph - N/A   Overcast
12:55 AM 36.0 °F 27.5 °F 31.1 °F 82% 29.99 in 10.0 mi West 12.7 mph 17.3 mph N/A   Overcast
1:15 AM 35.8 °F 28.3 °F 28.2 °F 74% 30.00 in 10.0 mi West 10.4 mph - N/A   Overcast
1:35 AM 35.6 °F 29.9 °F 28.4 °F 75% 29.99 in 10.0 mi WNW 6.9 mph - N/A   Overcast
1:55 AM 35.6 °F 29.9 °F 27.7 °F 73% 29.99 in 10.0 mi WNW 6.9 mph - N/A   Overcast
2:15 AM 35.1 °F 29.3 °F 27.5 °F 74% 29.99 in 10.0 mi WNW 6.9 mph - N/A   Overcast
2:35 AM 34.7 °F 31.8 °F 27.9 °F 76% 30.00 in 10.0 mi West 3.5 mph - N/A   Mostly Cloudy
2:55 AM 34.0 °F 29.8 °F 28.8 °F 81% 30.00 in 10.0 mi West 4.6 mph - N/A   Scattered Clouds
3:15 AM 33.8 °F 28.6 °F 28.4 °F 81% 30.01 in 10.0 mi WNW 5.8 mph - N/A   Scattered Clouds
3:35 AM 33.6 °F - 28.4 °F 81% 29.99 in 10.0 mi Calm Calm - N/A   Scattered Clouds
3:55 AM 32.9 °F - 28.8 °F 85% 29.99 in 10.0 mi Calm Calm - N/A   Clear
4:15 AM 32.7 °F 25.7 °F 29.8 °F 89% 30.00 in 10.0 mi West 8.1 mph - N/A   Clear
4:35 AM 33.3 °F 27.1 °F 29.1 °F 85% 29.99 in 10.0 mi West 6.9 mph - N/A   Clear
4:55 AM 33.1 °F 26.9 °F 28.9 °F 85% 30.00 in 10.0 mi West 6.9 mph - N/A   Clear
5:15 AM 32.9 °F 26.7 °F 28.9 °F 85% 30.00 in 10.0 mi West 6.9 mph - N/A   Clear
5:35 AM 32.5 °F 28.1 °F 28.9 °F 87% 30.00 in 10.0 mi West 4.6 mph - N/A   Clear
5:55 AM 32.2 °F 27.7 °F 29.1 °F 88% 30.02 in 10.0 mi West 4.6 mph - N/A   Clear
6:15 AM 32.0 °F 25.6 °F 28.9 °F 88% 30.03 in 10.0 mi West 6.9 mph - N/A   Clear
6:35 AM 32.2 °F 25.8 °F 28.9 °F 88% 30.03 in 10.0 mi West 6.9 mph - N/A   Clear
6:55 AM 32.0 °F 24.8 °F 28.4 °F 87% 30.04 in 10.0 mi West 8.1 mph - N/A   Clear
7:15 AM 32.0 °F 25.6 °F 28.4 °F 87% 30.04 in 10.0 mi West 6.9 mph - N/A   Clear
7:35 AM 32.0 °F 24.8 °F 28.4 °F 87% 30.04 in 10.0 mi West 8.1 mph - N/A   Clear
7:55 AM 32.2 °F 25.0 °F 28.6 °F 87% 30.05 in 10.0 mi West 8.1 mph - N/A   Clear
8:15 AM 32.0 °F 24.2 °F 28.4 °F 87% 30.06 in 10.0 mi West 9.2 mph - N/A   Clear
8:35 AM 32.5 °F 24.8 °F 28.9 °F 87% 30.07 in 10.0 mi West 9.2 mph - N/A   Clear
8:55 AM 32.9 °F 24.1 °F 28.9 °F 85% 30.07 in 10.0 mi West 11.5 mph - N/A   Clear
9:15 AM 33.3 °F 27.1 °F 28.9 °F 84% 30.09 in 10.0 mi WNW 6.9 mph - N/A   Clear
9:35 AM 33.6 °F 25.6 °F 28.4 °F 81% 30.10 in 10.0 mi West 10.4 mph - N/A   Clear
9:55 AM 33.8 °F 25.3 °F 28.8 °F 82% 30.10 in 10.0 mi West 11.5 mph - N/A   Clear
10:15 AM 34.5 °F 26.7 °F 28.0 °F 77% 30.09 in 10.0 mi West 10.4 mph - N/A   Clear
10:35 AM 35.4 °F 27.8 °F 27.5 °F 73% 30.10 in 10.0 mi West 10.4 mph - N/A   Clear
10:55 AM 36.5 °F 28.7 °F 28.2 °F 72% 30.11 in 10.0 mi West 11.5 mph - N/A   Clear
11:15 AM 37.2 °F 29.6 °F 29.7 °F 74% 30.11 in 10.0 mi West 11.5 mph - N/A   Clear
11:35 AM 38.1 °F 31.2 °F 28.4 °F 68% 30.11 in 10.0 mi West 10.4 mph - N/A   Clear
11:55 AM 38.7 °F 31.4 °F 28.4 °F 67% 30.12 in 10.0 mi West 11.5 mph - N/A   Clear
12:15 PM 39.2 °F 32.0 °F 28.2 °F 65% 30.11 in 10.0 mi West 11.5 mph - N/A   Clear
12:35 PM 39.7 °F 31.9 °F 29.3 °F 66% 30.11 in 10.0 mi WSW 13.8 mph - N/A   Clear
12:55 PM 41.0 °F 32.8 °F 29.3 °F 63% 30.10 in 10.0 mi West 16.1 mph 20.7 mph N/A   Clear
1:15 PM 41.9 °F 34.3 °F 29.5 °F 61% 30.10 in 10.0 mi West 15.0 mph 18.4 mph N/A   Clear
1:35 PM 43.0 °F 36.4 °F 31.6 °F 64% 30.10 in 10.0 mi WSW 12.7 mph - N/A   Clear
1:55 PM 43.9 °F 36.8 °F 31.8 °F 63% 30.09 in 10.0 mi West 15.0 mph 18.4 mph N/A   Clear
2:15 PM 45.0 °F 38.5 °F 32.0 °F 60% 30.08 in 10.0 mi WSW 13.8 mph 21.9 mph N/A   Clear
2:35 PM 45.1 °F 39.1 °F 31.1 °F 58% 30.08 in 10.0 mi West 12.7 mph - N/A   Clear
2:55 PM 46.2 °F 40.1 °F 32.2 °F 58% 30.07 in 10.0 mi West 13.8 mph 19.6 mph N/A   Clear
3:15 PM 46.4 °F 41.1 °F 32.0 °F 57% 30.06 in 10.0 mi West 11.5 mph - N/A   Clear
3:35 PM 46.8 °F - 31.5 °F 55% 30.06 in 10.0 mi West 12.7 mph 19.6 mph N/A   Clear
3:55 PM 46.4 °F 40.4 °F 30.2 °F 53% 30.06 in 10.0 mi West 13.8 mph 21.9 mph N/A   Mostly Cloudy
4:15 PM 47.3 °F - 31.5 °F 54% 30.06 in 10.0 mi West 16.1 mph 20.7 mph N/A   Overcast
4:35 PM 47.3 °F - 30.9 °F 53% 30.06 in 10.0 mi West 10.4 mph - N/A   Mostly Cloudy
4:55 PM 48.2 °F - 30.2 °F 50% 30.05 in 10.0 mi West 17.3 mph 24.2 mph N/A   Mostly Cloudy
5:15 PM 48.2 °F - 30.2 °F 50% 30.05 in 10.0 mi West 17.3 mph 23.0 mph N/A   Mostly Cloudy
5:35 PM 48.2 °F - 30.0 °F 49% 30.06 in 10.0 mi WNW 17.3 mph 26.5 mph N/A   Mostly Cloudy
5:55 PM 47.1 °F - 30.6 °F 53% 30.06 in 10.0 mi West 20.7 mph 26.5 mph N/A   Mostly Cloudy
6:15 PM 46.2 °F 39.5 °F 30.6 °F 54% 30.07 in 10.0 mi WNW 16.1 mph 24.2 mph N/A   Overcast
6:35 PM 45.5 °F 39.9 °F 30.6 °F 56% 30.08 in 10.0 mi WNW 11.5 mph 25.3 mph N/A   Overcast
6:55 PM 45.0 °F 38.9 °F 30.4 °F 57% 30.08 in 10.0 mi NW 12.7 mph 25.3 mph N/A   Mostly Cloudy
7:15 PM 43.7 °F 38.1 °F 30.7 °F 60% 30.09 in 10.0 mi WNW 10.4 mph - N/A   Scattered Clouds
7:35 PM 43.0 °F 35.7 °F 30.0 °F 60% 30.10 in 10.0 mi WNW 15.0 mph 20.7 mph N/A   Clear
7:55 PM 42.8 °F 35.4 °F 30.2 °F 61% 30.11 in 10.0 mi WNW 15.0 mph - N/A   Clear
8:15 PM 41.4 °F 33.6 °F 30.7 °F 66% 30.12 in 10.0 mi WNW 15.0 mph 20.7 mph N/A   Clear
8:35 PM 40.8 °F 32.3 °F 30.6 °F 67% 30.13 in 10.0 mi NW 17.3 mph 23.0 mph N/A   Scattered Clouds
8:55 PM 40.1 °F 32.0 °F 26.6 °F 59% 30.13 in 10.0 mi WNW 15.0 mph 19.6 mph N/A   Scattered Clouds
9:15 PM 39.4 °F 32.7 °F 26.6 °F 60% 30.14 in 10.0 mi West 10.4 mph 20.7 mph N/A   Clear
9:35 PM 38.1 °F 29.5 °F 27.5 °F 66% 30.14 in 10.0 mi West 15.0 mph 19.6 mph N/A   Clear
9:55 PM 37.6 °F 29.1 °F 27.1 °F 66% 30.15 in 10.0 mi West 13.8 mph 17.3 mph N/A   Clear
10:15 PM 36.7 °F 29.4 °F 27.7 °F 70% 30.15 in 10.0 mi West 10.4 mph - N/A   Clear
10:35 PM 37.4 °F 28.9 °F 27.0 °F 66% 30.15 in 10.0 mi West 13.8 mph 19.6 mph N/A   Clear
10:55 PM 37.0 °F 27.7 °F 27.3 °F 68% 30.15 in 10.0 mi WNW 16.1 mph 20.7 mph N/A   Scattered Clouds
11:15 PM 37.0 °F 28.5 °F 28.0 °F 70% 30.16 in 10.0 mi WNW 13.8 mph 18.4 mph N/A   Mostly Cloudy
11:35 PM 36.5 °F 27.4 °F 29.3 °F 75% 30.16 in 10.0 mi NW 15.0 mph 23.0 mph N/A   Mostly Cloudy
11:55 PM 35.8 °F 25.4 °F 27.7 °F 72% 30.17 in 10.0 mi WNW 18.4 mph 26.5 mph N/A   Mostly Cloudy